Baltimore, MD

2:17 AM EDT on May 26, 2017 (GMT -0400)
Baltimore-Washington International

Weather History for KBWI - January, 2014

Change the Weather History Date:

Sunday, January 19, 2014

  Actual Average Record
Temperature  
Mean Temperature 34 °F 33 °F  
Max Temperature 47 °F 41 °F 69 °F (1951)
Min Temperature 20 °F 24 °F -5 °F (1994)
Degree Days  
Heating Degree Days 31 32  
Month to date heating degree days 645 608  
Since 1 July heating degree days 2353 2389  
Cooling Degree Days 0 0  
Month to date cooling degree days 0 0  
Year to date cooling degree days 0 0  
Moisture  
Dew Point 16 °F    
Average Humidity 53    
Maximum Humidity 68    
Minimum Humidity 37    
Precipitation  
Precipitation 0.00 in 0.10 in 1.29 in (1936)
Month to date precipitation 2.26 1.87  
Year to date precipitation 2.26 1.87  
Snow  
Snow 0.00 in 0.30 in 7.70 in (1961)
Month to date snowfall 4.2 3.7  
Since 1 July snowfall 7.1 7.1  
Snow Depth 0.00 in    
Sea Level Pressure  
Sea Level Pressure 29.82 in    
Wind  
Wind Speed 7 mph (SW)    
Max Wind Speed 22 mph    
Max Gust Speed 28 mph    
Visibility 10 miles    
Events      
T = Trace of Precipitation, MM = Missing Value Source: NWS Daily Summary

Daily Weather History Graph

Daily Weather History Graph

Search for Another Location

Airport or City:

Trip Planner

Search our weather history database for the weather conditions in past years. The results will help you decide how hot, cold, wet, or windy it might be!

Date:

Astronomy

Jan. 19, 2014 Rise Set
Actual Time 7:22 AM EST 5:12 PM EST
Civil Twilight 6:53 AM EST 5:41 PM EST
Nautical Twilight 6:20 AM EST 6:14 PM EST
Astronomical Twilight 5:48 AM EST 6:46 PM EST
Moon 8:46 PM EST (1/19) 8:53 AM EST (1/19)
Length of Visible Light 10h 47m
Length of Day
9h 49m
Waning Gibbous, 89% of the Moon is Illuminated
Jan 19
Waning Gibbous
Jan 24
Last Quarter
Jan 30
New
Feb 6
First Quarter
Feb 14
Full

Hourly Weather History & Observations

Time (EST) Temp. Windchill Dew Point Humidity Pressure Visibility Wind Dir Wind Speed Gust Speed Precip Events Conditions
12:54 AM 21.9 °F - 8.1 °F 55% 29.95 in 10.0 mi Calm Calm - N/A   Overcast
1:54 AM 23.0 °F 18.4 °F 8.1 °F 53% 29.94 in 10.0 mi West 3.5 mph - N/A   Overcast
2:54 AM 23.0 °F 18.4 °F 9.0 °F 55% 29.94 in 10.0 mi South 3.5 mph - N/A   Overcast
3:54 AM 23.0 °F - 9.0 °F 55% 29.91 in 10.0 mi Calm Calm - N/A   Overcast
4:54 AM 21.9 °F - 10.0 °F 60% 29.89 in 10.0 mi Calm Calm - N/A   Mostly Cloudy
5:54 AM 21.0 °F - 10.9 °F 65% 29.88 in 10.0 mi Calm Calm - N/A   Mostly Cloudy
6:54 AM 21.0 °F 16.2 °F 12.0 °F 68% 29.86 in 10.0 mi SE 3.5 mph - N/A   Mostly Cloudy
7:54 AM 21.9 °F 17.2 °F 12.0 °F 66% 29.86 in 10.0 mi SE 3.5 mph - N/A   Scattered Clouds
8:54 AM 26.1 °F 20.5 °F 12.0 °F 55% 29.85 in 10.0 mi South 4.6 mph - N/A   Mostly Cloudy
9:54 AM 30.0 °F 24.1 °F 14.0 °F 51% 29.84 in 10.0 mi WSW 5.8 mph - N/A   Partly Cloudy
10:54 AM 34.0 °F 27.2 °F 16.0 °F 48% 29.83 in 10.0 mi SW 8.1 mph - N/A   Scattered Clouds
11:54 AM 39.0 °F 33.4 °F 17.1 °F 41% 29.80 in 10.0 mi WSW 8.1 mph - N/A   Scattered Clouds
12:54 PM 41.0 °F 34.7 °F 18.0 °F 40% 29.77 in 10.0 mi SW 10.4 mph - N/A   Mostly Cloudy
1:54 PM 44.1 °F 40.1 °F 19.0 °F 37% 29.75 in 10.0 mi WSW 6.9 mph - N/A   Mostly Cloudy
2:54 PM 45.0 °F 37.6 °F 21.0 °F 39% 29.75 in 10.0 mi WSW 17.3 mph 27.6 mph N/A   Scattered Clouds
3:54 PM 46.0 °F 39.0 °F 21.9 °F 39% 29.75 in 10.0 mi West 17.3 mph 23.0 mph N/A   Scattered Clouds
4:54 PM 43.0 °F 39.5 °F 21.9 °F 43% 29.75 in 10.0 mi WSW 5.8 mph - N/A   Scattered Clouds
5:54 PM 39.9 °F 34.5 °F 21.9 °F 49% 29.77 in 10.0 mi WSW 8.1 mph - N/A   Scattered Clouds
6:54 PM 41.0 °F 35.2 °F 21.0 °F 45% 29.77 in 10.0 mi West 9.2 mph - N/A   Partly Cloudy
7:54 PM 39.9 °F 35.1 °F 21.0 °F 47% 29.76 in 10.0 mi SSW 6.9 mph - N/A   Clear
8:54 PM 39.9 °F 33.9 °F 21.0 °F 47% 29.76 in 10.0 mi SW 9.2 mph - N/A   Clear
9:54 PM 41.0 °F 35.2 °F 21.9 °F 47% 29.76 in 10.0 mi SW 9.2 mph - N/A   Partly Cloudy
10:54 PM 39.9 °F 33.9 °F 21.9 °F 49% 29.75 in 10.0 mi SW 9.2 mph - N/A   Mostly Cloudy
11:54 PM 39.0 °F 34.0 °F 21.9 °F 50% 29.74 in 10.0 mi SW 6.9 mph - N/A   Mostly Cloudy